Regional Weather Roundup
Issued by NWS

Home | Current Version | Previous Version | Text Only | Print | Product List | Glossary On
Versions: 1 2 3 4 5 6 7 8 9 10 11 12 13 14 15 16 17 18 19 20 21 22 23 24 25 26 27 28 29 30 31 32 33 34 35 36 37 38 39 40 41 42 43 44 45 46 47 48 49 50
000
ASUS43 KMKX 260521
RWRWI

WISCONSIN REGIONAL WEATHER ROUNDUP
NATIONAL WEATHER SERVICE MILWAUKEE/SULLIVAN WI
1200 AM CDT MON OCT 26 2020

NOTE: "FAIR" INDICATES FEW OR NO CLOUDS BELOW 12,000 FEET WITH NO
SIGNIFICANT WEATHER AND/OR OBSTRUCTIONS TO VISIBILITY.

WIZ001-002-006>008-014>016-023>028-260600-
NORTHWEST WISCONSIN

CITY           SKY/WX    TMP DP  RH WIND       PRES   REMARKS
SUPERIOR ARPT  CLOUDY    27  18  68 NW6       30.33F WCI  21
ASHLAND        CLOUDY    27  22  81 W6        30.32R WCI  20
HAYWARD        MOCLDY    23  20  88 CALM      30.31R
SIREN          CLOUDY    24  23  93 CALM      30.33F
CUMBERLAND     PTCLDY    23  19  86 NW6       30.31S WCI  16
RICE LAKE      PTCLDY    24  21  91 W3        30.33S
CHETEK         CLOUDY    25  23  91 NW5       30.32S WCI  20
LADYSMITH        N/A     26  24  89 NW7       30.31F WCI  19
EAU CLAIRE     FLURRIES  27  22  81 NW6       30.32S WCI  20
MENOMONIE      CLOUDY    24  22  91 NW6       30.34S WCI  17
NEW RICHMOND   PTCLDY    25  22  87 NW5       30.33F WCI  19
OSCEOLA        CLOUDY    27  23  85 CALM      30.36F
$$

WIZ003>005-009-010-017-018-260600-
NORTH CENTRAL WISCONSIN

CITY           SKY/WX    TMP DP  RH WIND       PRES   REMARKS
MANITOWISH WTR LGT SNOW  24  22  93 NW6       30.24S WCI  17
ARBOR VITAE    LGT SNOW  27  25  92 NW6       30.24R WCI  20
WOODRUFF       LGT SNOW  27  25  92 NW6       30.24R WCI  20
RHINELANDER    LGT SNOW  26  22  84 NW6       30.23S FOG     WCI  19
EAGLE RIVER    FLURRIES  27  24  91 NW7       30.22S WCI  19
LAND O LAKES   FLURRIES  27  25  91 CALM      30.23S
PHILLIPS       FLURRIES  24  23  96 NW3       30.26S
TOMAHAWK       CLOUDY    25  23  91 NW6       30.25S WCI  18
MEDFORD        LGT SNOW  25  24  96 NW6       30.25S WCI  18
MERRILL        LGT SNOW  27  26  94 NW3       30.24S
$$

WIZ029-030-035-036-043>047-260600-
CENTRAL WISCONSIN

CITY           SKY/WX    TMP DP  RH WIND       PRES   REMARKS
WAUSAU         LGT SNOW  28  27  96 W8        30.24S FOG     WCI  20
MOSINEE        LGT SNOW  28  27  93 NW7       30.26S WCI  21
MARSHFIELD     LGT SNOW  26  23  88 NW7       30.26S FOG     WCI  18
STEVENS POINT  MIX PCPN  27  27 100 CALM      30.26R
WAUPACA        FLURRIES  32  30  92 NW3       30.25F
WAUTOMA        FLURRIES  30  28  92 NW5       30.26F WCI  25
WISC RAPIDS    LGT SNOW  29  27  92 NW7       30.27S FOG     WCI  22
CAMP DOUGLAS   MOCLDY    28  28 100 NW5       30.27S WCI  23
$$

WIZ011>013-019>022-031-037>040-048>050-260600-
NORTHEAST WISCONSIN

CITY           SKY/WX    TMP DP  RH WIND       PRES   REMARKS
ANTIGO         LGT SNOW  28  27  96 NW5       30.22S WCI  22
SHAWANO        LGT SNOW  32  31  96 CALM      30.24F
OCONTO         CLOUDY    31  31  98 NW3       30.23F
STURGEON BAY   FLURRIES  33  31  92 NW7       30.22F WCI  27
GREEN BAY      FLURRIES  32  29  88 NW7       30.24F WCI  26
MANITOWOC      FLURRIES  32  30  93 NW6       30.23F WCI  26
APPLETON       FLURRIES  32  30  93 NW6       30.21F WCI  26
CLINTONVILLE   LGT SNOW  31  29  91 NW6       30.24F WCI  25
OSHKOSH        LGT SNOW  32  29  88 NW6       30.24S FOG     WCI  26
$$

WIZ032>034-041-042-053>061-260600-
SOUTHWEST WISCONSIN

CITY           SKY/WX    TMP DP  RH WIND       PRES   REMARKS
LA CROSSE      CLOUDY    29  25  85 NW13      30.32S WCI  19
SPARTA         CLEAR     27  26  96 NW7       30.30S WCI  19
VIROQUA        CLOUDY    27  27 100 NW7       30.27S WCI  19
BOSCOBEL       CLOUDY    32  27  81 VRB3      30.29S
PRAIRIE DU CHI CLOUDY    31  26  80 NW12      30.30F WCI  22
PLATTEVILLE    CLOUDY    31  31 100 N9        30.26S WCI  23
$$

WIZ056-057-062-063-064-067-068-260600-
SOUTH CENTRAL WISCONSIN

CITY           SKY/WX    TMP DP  RH WIND       PRES   REMARKS
REEDSBURG      CLOUDY    29  29  99 NW8       30.27R WCI  22
BARABOO/DELLS  CLOUDY    28  28  99 NW5       30.26S WCI  23
LONE ROCK      FLURRIES  32  27  81 N7        30.28S WCI  26
MINERAL POINT  CLOUDY    32  32 100 N7        30.24F WCI  26
MADISON        FLURRIES  31  30  96 N7        30.24S WCI  24
MIDDLETON      CLOUDY    32  30  91 N6        30.25S WCI  27
WATERTOWN      CLOUDY    32  32 100 N8        30.23R WCI  25
MONROE         FLURRIES  32  28  86 N12       30.22S WCI  23
JANESVILLE     CLOUDY    34  32  93 N7        30.23S WCI  28
$$

WIZ051-052-058>065-066-070>072-260600-
SOUTHEAST WISCONSIN

CITY           SKY/WX    TMP DP  RH WIND       PRES   REMARKS
MILWAUKEE      CLOUDY    36  29  75 N10       30.21R WCI  28
WAUKESHA       CLOUDY    32  30  93 N7        30.22S WCI  26
MILWAUKEE/TIMM CLOUDY    32  28  86 N8        30.23S WCI  25
RACINE         CLOUDY    37  32  82 N10       30.22R WCI  30
KENOSHA        CLOUDY    37  31  78 N9        30.20S WCI  30
FOND DU LAC    LGT SNOW  33  30  88 NW9       30.24S FOG     WCI  25
SHEBOYGAN      CLOUDY    34  30  85 N8        30.22F WCI  27
WEST BEND      CLOUDY    32  32 100 NW6       30.23R WCI  26
JUNEAU         FLURRIES  31  29  92 N3        30.24S
$$

LSZ147-162-260600-
LAKE SUPERIOR

STATION/POSITION TIME  TEMP    WIND        PRES    WAVE
                       AIR SEA DIR/SP/G            HT/PER
                 (UTC) (F)     (DEG/KT/KT) (MB)    (FT/S)
W MID LAKE BUOY  0500   34 43  310/ 10/ 14 1026.1
DEVILS ISLAND    0500   31     320/ 16/ 19 1027.1R
PORT WING        0440   31     330/ 14/ 18 1026.4S
SAXON HARBOR     0440   28     210/  6/  8 1025.4S
$$

LMZ867-665-643>646-260600-
LAKE MICHIGAN

STATION/POSITION TIME  TEMP    WIND        PRES    WAVE
                       AIR SEA DIR/SP/G            HT/PER
                 (UTC) (F)     (DEG/KT/KT) (MB)    (FT/S)
CHAMBERS ISLAND  0440   34     250/  6/ 12   N/A
N MID LAKE BUOY  0500   38 53  320/ 10/ 14 1023.4
KEWAUNEE LAKESHO 0448   33     310/  4/  8 1022.9F
SHEBOYGAN LAKESH 0500   33     320/  8/  8   N/A
PORT WASHINGTON  0440   34     330/  4/  8 1024.7S
MILWAUKEE LAKESH 0500   35     330/ 11/ 14   N/A
S MID LAKE BUOY  0500   45 53   20/ 14/ 17 1022.0
KENOSHA   LAKESH 0500   37     330/ 13/ 15 1022.4S
$$

TC  - TEMPERATURE IN CELSIUS
VSB - VISIBILITY IN STATUTE MILES
WCI - WIND CHILL INDEX
HX  - HEAT INDEX




USA.gov is the U.S. government's official web portal to all federal, state and local government web resources and services.